sat.trackr.live / text

‹ back to catalog

STARLINK-2430

NORAD 48100 · 2021-027J

PAYLOAD ACTIVE UNKNOWN

§ Identity

Operator
Country
US
Launch date
2021-04-07
Launch site
AFETR
Launch vehicle
Mass (kg)
RCS (m²)

Purposes: comms

External: N2YO · Heavens-Above · Gunter

§ Orbital elements

Epoch: 2026-09-20T03:41:58.021728Z

Period
94.01 min
Inclination
53.1619°
Eccentricity
0.0001114
Mean motion
15.31699499 rev/d
Perigee alt
470.0 km
Apogee alt
471.5 km
Semi-major
6,848.9 km
B*
6.0377e-6
RAAN
327.4811°
Arg perigee
72.3292°
Mean anomaly
287.7831°
Rev number
30,248

§ Raw data

STARLINK-24301 48100U 21027J   26263.15414377 -.00000178  00000+0  60377-5 0  99902 48100  53.1619 327.4811 0001114  72.3292 287.7831 15.31699499302487

JSON: /api/v1/satellites/48100 · /tle

For live sub-satellite position, see the globe view (requires WebGL).

§ Visibility from observer

Set your observer location to see the next 7 days of passes ≥ 10°. The values pass through the URL so the page stays shareable.

No JS? Fill the form by hand. The geolocation button needs JavaScript.